Flag for Norway Weather past 2 weeks in Jørpeland, Norway

Now
37 °F

Sunny.


Feels Like: 32 °F
Forecast: 32 / 40 °F
Wind: 7 mph from Northeast

Location: Stavanger / Sola

Current Time: Apr 2, 2015 at 10:13:00 AM

Latest Report: Apr 2, 2015 at 9:50 AM


Visibility: 10 mi

Pressure: 29.77 "Hg

Humidity: 81%

Dew point: 32 °F

Location of JørpelandLocation

Historic Weather in Jørpeland — Graph

°F

Jørpeland temperature yesterday

Maximum temperature yesterday: 41 °F (at 8:20 AM)
Minimum temperature yesterday: 36 °F (at 6:20 AM)
Average temperature yesterday: 39 °F

Past Weeks' High & Low Weather Summary

 TemperatureHumidityPressure
High54 °F (Mar 18, 11:50 AM)100% (Mar 19, 3:50 AM)30.51 "Hg (Mar 19, 3:50 AM)
Low30 °F (Mar 27, 5:50 AM)31% (Mar 21, 2:50 PM)28.91 "Hg (Mar 31, 6:50 AM)
Average41 °F81%29.78 "Hg
* Reported Mar 18 7:20 AM — Apr 2 8:50 AM, Jørpeland, Weather by CustomWeather, © 2015

Note: Actual official high and low records may vary slightly from our data, if they occured in-between our weather recording intervals... More about our weather records

Advertising

Jørpeland weather history for previous 24 hours

 ConditionsComfort  
Time TempWeatherWind HumidityBarometerVisibility
8:50 AM
Thu, Apr 2
36 °FPassing clouds.7 mph81%29.74 "HgN/A
8:20 AM34 °FPassing clouds.5 mph87%29.71 "HgN/A
7:50 AM34 °FPassing clouds.3 mph87%29.71 "HgN/A
7:20 AM34 °FPassing clouds.3 mph87%29.71 "HgN/A
6:50 AM34 °FPassing clouds.6 mph87%29.68 "HgN/A
6:20 AM34 °FPassing clouds.2 mph87%29.68 "HgN/A
5:50 AM32 °FPassing clouds.5 mph87%29.65 "HgN/A
4:50 AM34 °FPassing clouds.6 mph81%29.65 "HgN/A
3:50 AM36 °FPassing clouds.8 mph81%29.65 "HgN/A
2:50 AM34 °FPassing clouds.8 mph87%29.65 "HgN/A
1:50 AM36 °FLight snow. Passing clouds.7 mph81%29.65 "Hg6 mi
12:50 AM36 °FPassing clouds.7 mph81%29.62 "HgN/A
12:20 AM37 °FPassing clouds.10 mph65%29.62 "HgN/A
11:50 PM
Wed, Apr 1
37 °FPassing clouds.9 mph65%29.62 "HgN/A
11:20 PM37 °FPassing clouds.13 mph70%29.62 "HgN/A
10:50 PM37 °FPassing clouds.13 mph70%29.62 "HgN/A
10:20 PM36 °FPassing clouds.13 mph75%29.62 "HgN/A
9:50 PM37 °FPassing clouds.15 mph75%29.62 "HgN/A
9:20 PM37 °FPassing clouds.14 mph75%29.62 "HgN/A
8:50 PM37 °FScattered clouds.16 mph75%29.62 "HgN/A
8:20 PM37 °FScattered clouds.17 mph75%29.62 "HgN/A
7:50 PM37 °FScattered clouds.17 mph65%29.62 "HgN/A
7:20 PM36 °FScattered clouds.21 mph81%29.62 "HgN/A
6:50 PM39 °FScattered clouds.13 mph61%29.62 "HgN/A
6:20 PM39 °FScattered clouds.16 mph65%29.62 "HgN/A
5:50 PM39 °FScattered clouds.20 mph61%29.62 "HgN/A
5:20 PM41 °FScattered clouds.18 mph61%29.62 "HgN/A
4:50 PM41 °FPassing clouds.20 mph61%29.62 "HgN/A
4:20 PM41 °FPassing clouds.18 mph61%29.62 "HgN/A
3:50 PM41 °FPassing clouds.21 mph57%29.62 "HgN/A
3:20 PM41 °FPassing clouds.23 mph57%29.62 "HgN/A
2:50 PM41 °FScattered clouds.24 mph61%29.62 "HgN/A
2:20 PM41 °FScattered clouds.23 mph57%29.59 "HgN/A
1:50 PM41 °FScattered clouds.25 mph61%29.59 "HgN/A
1:20 PM41 °FPassing clouds.26 mph61%29.59 "HgN/A
12:50 PM41 °FScattered clouds.30 mph61%29.59 "HgN/A
12:20 PM41 °FScattered showers. Scattered clouds.28 mph57%29.56 "HgN/A
11:50 AM41 °FScattered showers. Scattered clouds.26 mph57%29.53 "HgN/A
11:20 AM41 °FScattered clouds.32 mph57%29.53 "HgN/A
10:50 AM39 °FPartly sunny.29 mph61%29.53 "HgN/A
10:20 AM39 °FScattered showers. Broken clouds.31 mph65%29.50 "HgN/A
Weather by CustomWeather, © 2015

See weather overviewHow to use our weather pages